Regional Weather Roundup
Issued by NWS

Home | Current Version | Previous Version | Text Only | Print | Product List | Glossary Off
Versions: 1 2 3 4 5 6 7 8 9 10 11 12 13 14 15 16 17 18 19 20 21 22 23 24 25 26 27 28 29 30 31 32 33 34 35 36 37 38 39 40 41 42 43 44 45 46 47 48 49 50

000
ASUS43 KDTX 090810
RWRMI
MICHIGAN HOURLY REGIONAL WEATHER ROUNDUP
NATIONAL WEATHER SERVICE DETROIT/PONTIAC MI
300 AM EST TUE FEB 09 2016

NOTE: "FAIR" INDICATES FEW OR NO CLOUDS BELOW 12,000 FEET WITH NO
SIGNIFICANT WEATHER AND/OR OBSTRUCTION TO VISIBILITY.

MIZ047>049-052>055-059>063-066>070-074>076-081>083-090900-
SOUTHEAST LOWER MICHIGAN

CITY           SKY/WX    TMP DP  RH WIND       PRES   REMARKS
ADRIAN         CLOUDY    30  26  85 W10       29.57F WCI  21
ALMA           CLOUDY    32  29  90 NW15      29.56S WCI  21
ANN ARBOR      CLOUDY    31  28  89 W12       29.54S WCI  22
BAD AXE        LGT SNOW  33  32  98 N16G28    29.47S VSB 1   WCI  22
CARO           CLOUDY    34  32  93 NW9       29.49F WCI  26
DETROIT CITY   CLOUDY    34  28  79 W7        29.53S WCI  28
DETROIT        CLOUDY    32  29  88 SW8       29.55S WCI  25
FLINT          SNOW      34  30  85 W10       29.52S VSB 1/2 WCI  26
GROSSE ILE     MOCLDY    32  28  86 W7        29.53S WCI  26
HILLSDALE      CLOUDY    28  27  96 W10       29.55F WCI  19
HOWELL         LGT SNOW  32  32  99 W7        29.52S WCI  26

CITY           SKY/WX    TMP DP  RH WIND       PRES   REMARKS
JACKSON        CLOUDY    30  26  85 W12       29.55F FOG     WCI  20
LAMBERTVILLE   CLOUDY    31  27  85 W10       29.57F WCI  22
LANSING        LGT SNOW  32  30  92 NW9       29.55S FOG     WCI  24
LAPEER         LGT SNOW  32  32 100 W7        29.50S VSB 1   WCI  25
MASON          LGT SNOW  32  30  93 W8        29.54S WCI  25
MONROE         CLOUDY    32  29  88 W10       29.55S WCI  24
MT. CLEMENS    FLURRIES  34  32  93 W8        29.50S WCI  27
PONTIAC        LGT SNOW  32  30  92 W10       29.50S FOG     WCI  24
PORT HOPE        N/A     33  32  96 NE8       29.45F WCI  26
PORT HURON     LGT SNOW  32  32 100 SW5       29.49S WCI  27
TRI CITIES     LGT SNOW  33  29  85 NW15      29.54R FOG     WCI  23
MIDLAND        LGT SNOW  31  29  93 NW9       29.54S WCI  23
TROY           CLOUDY    35  31  87 W6        29.53S WCI  30
SAGINAW HB     LGT SNOW  32  32 100 NW12      29.52S WCI  23
$$
MIZ043>046-050>051-056>058-064>065-071>073-077>080-090900-
SOUTHWEST LOWER MICHIGAN

CITY           SKY/WX    TMP DP  RH WIND       PRES   REMARKS
BATTLE CREEK   CLOUDY    30  27  88 W7        29.58S WCI  23
BENTON HARBOR  LGT SNOW  31  28  89 NW7G20    29.63S FOG     WCI  24
BIG RAPIDS     CLOUDY    27  24  91 NW9G17    29.59R WCI  17
COLDWATER      CLOUDY    29  27  94 W6        29.58S WCI  23
FREMONT        CLOUDY    26  24  90 N13G21    29.62R WCI  15
HOLLAND        CLOUDY    30  27  88 NW7       29.62R WCI  23
GRAND RAPIDS   CLOUDY    32  28  85 NW14      29.59R WCI  22
IONIA          LGT SNOW  32  29  89 NW12      29.56S WCI  23
KALAMAZOO      CLOUDY    31  27  85 W3        29.58S
LUDINGTON      CLOUDY    25  22  87 N12G17    29.66S WCI  14
MARSHALL       CLOUDY    30  28  90 W7        29.57S WCI  23
MOUNT PLEASANT CLOUDY    30  25  82 NW10G18   29.56S WCI  21
MUSKEGON       CLOUDY    28  22  78 N13       29.64R WCI  17
SOUTH HAVEN    CLOUDY    31  28  89 N13G20    29.62R WCI  21
$$
MIZ016>042-090900-
NORTHERN LOWER MICHIGAN

CITY           SKY/WX    TMP DP  RH WIND       PRES   REMARKS
ALPENA         LGT SNOW  29  26  89 NW12G21   29.55S FOG     WCI  19
BEAVER ISLAND  CLOUDY    24  19  83 N9G17     29.64S WCI  14
BELLAIRE       CLOUDY    26  21  83 N7        29.64S WCI  18
CADILLAC       CLOUDY    24  22  91 NW12G17   29.57F WCI  13
CHARLEVOIX     CLOUDY    25  22  85 NW10G18   29.66S WCI  15
FRANKFORT      CLOUDY    24  20  84 N8        29.66S WCI  15
GAYLORD        CLOUDY    23  21  92 NW9       29.56F WCI  13
GRAYLING       CLOUDY    25  22  90 NW12      29.57F WCI  14
HARBOR SPRINGS CLOUDY    25  21  85 NW7       29.61S WCI  17
HOUGHTON LAKE  CLOUDY    25  23  92 NW16      29.56S WCI  12
MANISTEE       CLOUDY    25  18  74 N12       29.66S WCI  14
OSCODA         LGT SNOW  30  29  95 NW14G21   29.51S WCI  19
PELLSTON       CLOUDY    24  20  84 NW10      29.61F WCI  14
ROGERS CITY    LGT SNOW  28  26  91 NW13      29.57F WCI  18
TRAVERSE CITY  CLOUDY    26  20  77 N9        29.63F WCI  17
$$
MIZ007>008-015-090900-
EASTERN UPPER MICHIGAN

CITY           SKY/WX    TMP DP  RH WIND       PRES   REMARKS
KINROSS        CLOUDY    27  25  93 NW13      29.58S WCI  16
MACKINAC ISLAN CLOUDY    25  22  89 NW10      29.60S WCI  15
NEWBERRY       CLOUDY    22  19  87 NW7       29.62S WCI  13
S. S. MARIE    LGT SNOW  28  25  88 NW10      29.58S FOG     WCI  19
MUNISING         N/A     21  15  78 N21       29.69R WCI   5
$$
MIZ004>006-011>014-085-090900-
CENTRAL UPPER MICHIGAN

CITY           SKY/WX    TMP DP  RH WIND       PRES   REMARKS
MANISTIQUE     CLOUDY    21  16  79 NW15G22   29.65R WCI   8
ESCANABA       CLEAR     12   7  79 NW9       29.71S WCI   0
MENOMINEE      CLOUDY    16   5  62 N8        29.74R WCI   5
SAWYER-GWINN   LGT SNOW  12   9  85 N17       29.68S WCI  -5
$$
MIZ001>003-009>011-084-090900-
WESTERN UPPER MICHIGAN

CITY           SKY/WX    TMP DP  RH WIND       PRES   REMARKS
IRON MOUNTAIN  PTCLDY    12   4  70 N17G24    29.71R WCI  -5
HOUGHTON       LGT SNOW  11   5  77 N16G23    29.77S WCI  -6
COPPER HARBOR    N/A     16  13  88 NE26G32   29.77R WCI  -3
IRONWOOD       CLOUDY    12   9  85 N15G21    29.80S WCI  -4
$$

ABBREVIATIONS USED IN REMARKS
   TC - TEMPERATURE IN CELSIUS
  WCI - WIND CHILL INDEX
   HX - HEAT INDEX
  VSB - VISIBILITY




USA.gov is the U.S. government's official web portal to all federal, state and local government web resources and services.